Location: Cosy Dell
(34.2789°N, 117.4537°W)
Time: 21:16:30
(UTC+00:00)

USA 215 - Pass Details

Date: 14 July 2020
Orbit: 1102 x 1106 km, 123.0° (Epoch: 08 August)

Event Time Altitude Azimuth Distance (km) Brightness Sun altitude
Rises 07:06:18 0° 36° (NE) 3,922 6.7 -32.9°
Reaches altitude 10° 07:08:57 10° 29° (NNE) 2,962 6.0 -33.0°
Maximum altitude 07:14:52 38° 324° (NW) 1,607 4.4 -33.3°
Drops below altitude 10° 07:20:48 10° 258° (WSW) 2,954 5.5 -33.5°
Enters shadow 07:20:51 10° 258° (WSW) 2,976 5.5 -33.5°
